www.pogodaiklimat.ru

Погода и климат >> Архив погоды >> Антарктида >> Zhongshan


ПОГОДА в Zhongshan

  • Прогноз погоды в Zhongshan
  • Монитор погоды в Zhongshan
  • Климат города

АРХИВ ПОГОДЫ в Zhongshan

Время (UTC), дата Ветер
(напр.,м/с)
 
Видим.   Явления Облачность Т
(С)
Тd
(С)
f
(%)
Тe
(С)
Тes
(С)
Комфортность P
(гПа)
Po
(гПа)
Тmin
(С)
Tmax
(С)
R
(мм)
R24
(мм)
S
(см)
18 16.06 В 17 25 км ясно -12.2 -20.5 50 -26 -26 1014.0 1011.7
00 17.06 В 15 22 км 3/0
[Ci fib]
-12.1 -22.4 42 -25 -25 1015.3 1013.0
06 17.06 В 14 25 км 1/0
[Ci fib]
-11.7 -23.5 37 -24 -24 1014.5 1012.2
12 17.06 В 17 23 км 3/0
[Ci fib]
-12.6 -23.1 41 -26 -26 1012.8 1010.5
18 17.06 В 12 25 км 3/0
[Ci fib]
-13.6 -24.9 38 -26 -26 1009.4 1007.1
00 18.06 В 19 22 км 3/0
[Ci fib]
-15.3 -23.4 50 -31 -31 опасность
обморожения
1003.7 1001.4
06 18.06 В 19 25 км 3/0
[Ac lent]
-15.6 -23.7 50 -31 -31 опасность
обморожения
995.7 993.4
12 18.06 В 24 22 км 3/1 1000 м
[Cu hum Ac lent]
-16.6 -24.6 50 -34 -34 опасность
обморожения
988.6 986.3
18 18.06 В 19 25 км ясно -16.8 -25.5 47 -33 -33 опасность
обморожения
986.6 984.3
00 19.06 В 19 23 км ясно -15.9 -25.9 42 -32 -32 опасность
обморожения
984.6 982.3
06 19.06 В 19 25 км 3/0
[Ac lent]
-16.1 -25.1 46 -32 -32 опасность
обморожения
984.0 981.7
12 19.06 В 14 22 км ясно -14.1 -23.5 45 -27 -27 984.4 982.1
18 19.06 В 7 25 км ясно -13.8 -21.1 54 -24 -24 984.6 982.3
00 20.06 В 7 23 км 3/0
[Ci fib]
-11.4 -20.0 49 -21 -21 984.6 982.3
06 20.06 В 16 25 км 9/0
[Ac lent]
-9.0 -18.8 45 -21 -21 985.1 982.8
12 20.06 В 15 24 км 8/0
[Ac lent Ci fib]
-8.9 -15.2 60 -21 -21 986.6 984.3
18 20.06 В 14 23 км 9/0
[Ac lent Ci fib]
-8.0 -15.0 57 -20 -20 988.6 986.3
00 21.06 В 14 23 км 6/0
[Ac lent Ci fib]
-6.9 -13.4 60 -18 -18 989.8 987.5
06 21.06 В 16 25 км 9/0
[Ac lent]
-7.3 -14.6 56 -19 -19 991.2 988.9
12 21.06 В 17 22 км 9/0
[Ac lent]
-8.7 -14.9 61 -21 -21 991.8 989.5
18 21.06 В 16 22 км 9/0
[Ac lent]
-10.7 -17.2 59 -24 -24 993.6 991.3
00 22.06 В 13 23 км 9/0
[Ac lent]
-11.2 -16.7 64 -23 -23 995.4 993.1
06 22.06 В 14 25 км 9/0
[Ac lent]
-9.7 -16.0 60 -22 -22 994.3 992.0
12 22.06 В 16 23 км 8/0
[Ac lent Ci fib]
-9.1 -14.1 67 -22 -22 991.6 989.3
18 22.06 В 16 23 км 9/0
[Ac lent]
-7.9 -13.9 62 -20 -20 989.5 987.2
00 23.06 В 12 22 км 9/0
[Ac trans]
-8.3 -16.9 50 -19 -19 987.1 984.8
06 23.06 В 16 25 км 4/0
[Ac lent Ci fib]
-9.9 -18.8 48 -23 -23 985.8 983.5
12 23.06 В 13 25 км ясно -9.8 -18.5 49 -21 -21 986.1 983.8

 

Местоположение метеостанции Zhongshan (Антарктида): широта -69.37 долгота 76.37 высота над уровнем моря 18 м.

В архиве по умолчанию представлена погода в Zhongshan за последнюю неделю. Архивные данные за месяц целиком и за предыдущие месяцы, начиная с января 2011 года, Вы можете получить, выбрав интересующий диапазон дат из раскрывающегося списка и нажав кнопку "Ввод!".


*Определитесь, кто Вы:
робот инопланетянин человек

Внимание! Время в таблицах - всемирное. Для получения местного времени необходимо прибавить поправку, которая в Zhongshan равна 0 ч.

Смотрите также архив погоды в соседних городах и на ближайших метеорологических станциях:

Погода в Progress (Антарктида) (1 км)
Погода в Bharati (Антарктида) (8 км)
Погода в Davis (Антарктида) (108 км)
Погода в Druzhnaya-4 (Антарктида) (111 км)
Погода в Davis (Whoop Whoop) (Антарктида) (140 км)
Погода в Amery Ice Shelf (Антарктида) (299 км)
Погода в Mawson (Антарктида) (583 км)
Погода в Mirnyj (Антарктида) (759 км)
Погода в Dome Plateau Eagle (Антарктида) (783 км)
Погода в Davis/AWS (Антарктида) (1223 км)

Пояснения к столбцам:

Ветер - указаны скорость ветра в м/с - средняя за 10 мин, порывы в срок и между сроками (в фигурных скобках) и направление, откуда дует ветер: С - северный, СВ - северо-восточный, В - восточный, ЮВ - юго-восточный, Ю - южный, ЮЗ - юго-западный, З - западный, СЗ - северо-западный.
Видимость - горизонтальная дальность видимости в метрах или километрах. При видимости от 1 до 10 км при отсутствии осадков обычно наблюдается дымка, при ухудшении видимости до 1 км и менее - туман. В сухую погоду видимость может ухудшаться дымом, пылью или мглою.
Явления - указаны атмосферные явления, наблюдавшиеся в срок или в последний час перед сроком; фигурными скобками обозначены явления, наблюдавшиеся между сроками (за 1-3 часа до срока); квадратными скобками обозначены град или гололедные отложения с указанием их диаметра в мм.
Облачность - указаны через наклонную черту общая и нижняя облачность в баллах и высота нижней границы облаков в метрах; квадратными скобками обозначены формы облаков: Ci - перистые, Cs - перисто-слоистые, Cc - перисто-кучевые, Ac - высококучевые, As - высокослоистые, Sc - слоисто-кучевые, Ns - слоисто-дождевые, Cu - кучевые, Cb - кучево-дождевые. Подробнее классификацию облаков см. в Атласе облаков (PDF).
T - Температура воздуха - температура, измеренная на высоте 2 м над землей.
Td - Температура точки росы - температура, при понижении до которой содержащийся в воздухе водяной пар достигнет насыщения.
f - Относительная влажность воздуха - влажноcть воздуха, измеренная на высоте 2 м над землей.
Te - Эффективная температура - температура, которую ощущает одетый по сезону человек в тени. Характеристика душности погоды. При расчете учитывается влияние влажности воздуха и скорости ветра на теплоощущения человека.
Tes - Эффективная температура на солнце - температура, которую ощущает человек, с поправкой на солнечный нагрев. Характеристика знойности погоды. Зависит от высоты солнца над горизонтом, облачности и скорости ветра. Ночью, в пасмурную погоду, а также при ветре 12 м/с и более поправка равна нулю.
P - Атмосферное давление - приведенное к уровню моря атмосферное давление.
Po - Атмосферное давление - измеренное на уровне метеостанции атмосферное давление.
Tmin - Минимальная температура - минимум температуры воздуха на высоте 2 м над землей.
Tmax - Максимальная температура - максимум температуры воздуха на высоте 2 м над землей.
R - Количество осадков - Количество выпавших осадков за период времени, мм. При наведении курсора мыши на число - период времени, за который выпало указанное количество осадков.
R24 - Количество осадков - Количество выпавших осадков за 24 часа, мм.
S - Снежный покров - Высота снежного покрова, см. При наведении курсора мыши на число - состояние снежного покрова и степень покрытия местности в баллах.